Regional Weather Roundup
Issued by NWS Upton, NY

Current Version | Previous Version | Graphics & Text | Print | Product List | Glossary Off
Versions: 1 2 3 4 5 6 7 8 9 10 11 12 13 14 15 16 17 18 19 20 21 22 23 24 25 26 27 28 29 30 31 32 33 34 35 36 37 38 39 40 41 42 43 44 45 46 47 48 49 50

000
ASUS41 KOKX 211009
RWROKX

REGIONAL WEATHER ROUNDUP
NATIONAL WEATHER SERVICE NEW YORK NY
600 AM EDT SAT OCT 21 2017

NOTE: "FAIR" INDICATES FEW OR NO CLOUDS BELOW 12,000 FEET WITH NO
SIGNIFICANT WEATHER AND/OR OBSTRUCTIONS TO VISIBILITY.

NYZ071-072-176-178-NJZ106-104-211100-
NEW YORK CITY METRO AREA

CITY           SKY/WX    TMP DP  RH WIND       PRES   REMARKS
Central Park   CLEAR     57  36  45 CALM      30.30R
Bronx Bot Gard   N/A     52  39  62 E1        30.28F
LaGuardia APRT PTCLDY    60  45  57 CALM      30.27R
Kennedy INTL   PTCLDY    51  41  68 N3        30.28R
Breezy Point     N/A     59 N/A N/A S1          N/A
Newark/Liberty PTCLDY    54  41  61 NE5       30.27R
Teterboro      CLEAR     51  41  68 CALM      30.27R
$$

NYZ177-179-078>081-211100-
LONG ISLAND NEW YORK

CITY           SKY/WX    TMP DP  RH WIND       PRES   REMARKS
Jones Beach      N/A     55 N/A N/A N2          N/A
Matinecock PT    N/A     59 N/A N/A NW5         N/A
Farmingdale    CLEAR     50  43  77 N5        30.27R
MacArthur/ISP  PTCLDY    50  46  86 CALM      30.26R
Shirley        CLEAR     50  45  83 CALM      30.27R
Mt Sinai Harb    N/A    N/A N/A N/A W3          N/A
Westhampton    CLEAR     41  36  82 CALM      30.28R
East Hampton   FAIR      47  44  88 CALM      30.25R
Montauk          N/A     55  43  63 CALM      30.27R
$$

NYZ052-065-067-211100-
HUDSON VALLEY

CITY           SKY/WX    TMP DP  RH WIND       PRES   REMARKS
White Plains   CLEAR     50  41  71 NW6       30.27R
Larchmont Harb   N/A     54 N/A N/A MISG        N/A
Croton On Huds   N/A     48 N/A N/A NE5         N/A
Newburgh       CLEAR     45  39  81 NW6       30.29R
Montgomery     CLEAR     40  38  93 CALM      30.28R
Poughkeepsie   PTCLDY    38  36  92 CALM      30.28R
Albany         CLEAR     42  36  79 CALM      30.28R
$$

NJZ001-105-106-008-010-013-015-019>022-104-211100-
NEW JERSEY

CITY           SKY/WX    TMP DP  RH WIND       PRES   REMARKS
Newark/Liberty PTCLDY    54  41  61 NE5       30.27R
Teterboro      CLEAR     51  41  68 CALM      30.27R
Caldwell       CLEAR     43  42  97 CALM      30.29R
Somerville     CLEAR     39  38  96 CALM      30.27R
Linden         FAIR      51  39  65 CALM      30.28R
Perth Amboy      N/A     52 N/A N/A NW3         N/A
Sussex         CLEAR     39  38  96 CALM      30.30R
Andover          N/A     40  39  97 CALM      30.30S
Trenton        CLEAR     46  39  76 CALM      30.28R
Millville      CLEAR     44  42  93 W3        30.28R
Atlantic City  CLEAR     49  40  71 N5        30.27S
Wrightstown    CLEAR     42  39  91 CALM      30.26R
Toms River       N/A     37  35  92 CALM      30.29R
Belmar         PTCLDY    47  40  76 W3        30.29R
$$

PAZ047>061-062-071-211100-
EASTERN PENNSYLVANIA

CITY           SKY/WX    TMP DP  RH WIND       PRES   REMARKS
Philadelphia   CLEAR     50  44  80 CALM      30.29R
Allentown      CLEAR     42  37  82 CALM      30.30R
Scranton       CLOUDY    46  36  68 E6        30.31R
$$

CTZ002-004>006-009-010-012-RIZ004-006-007-MAZ004-011-015-211100-
SOUTHERN NEW ENGLAND
 IN CT

CITY           SKY/WX    TMP DP  RH WIND       PRES   REMARKS
Bradley INTL   CLEAR     42  39  89 CALM      30.26R
Hartford       CLEAR     43  41  93 CALM      30.27R
Danbury        CLEAR     40  37  89 CALM      30.30R
Wtrbury/Oxford CLEAR     44  36  73 N3        30.28R
Norwalk Harbor   N/A     50 N/A N/A NW6         N/A
Bridgeport     PTCLDY    52  39  61 NW5       30.27R
Meriden        CLEAR     43  40  89 N3        30.27R
New Haven      PTCLDY    47  39  74 CALM      30.27R
Chester        FAIR      54  36  50 NW7       30.26R
Groton         CLEAR     50  39  66 NE3       30.24R
Wilimantic     CLEAR     38  36  92 CALM      30.27R

 IN RI

CITY           SKY/WX    TMP DP  RH WIND       PRES   REMARKS
Providence     CLEAR     47  42  83 CALM      30.25R
Block Island   CLEAR     56  43  61 N5        30.26R
Westerly       PTCLDY    47  41  80 CALM      30.25R
 IN MA

CITY           SKY/WX    TMP DP  RH WIND       PRES   REMARKS
Boston         CLEAR     55  37  50 W3        30.23R
Worcester      CLEAR     53  32  44 W13       30.24S
Westfield      CLEAR     39  37  92 CALM      30.26R
Provincetown   CLEAR     45  43  93 CALM      30.24R
Nantucket      CLEAR     48  47  96 CALM      30.24R
$$

ANZ330-335-338-340-345-350-353-355-211100-
COASTAL MARINE OBSERVATIONS


STATION/POSITION TIME  SKY/WX   TEMP    WIND        PRES    VSBY  WAVE
                                AIR SEA DIR/SP/G                  HT/PER
                 (UTC)          (F)     (DEG/KT/KT) (MB)    (MI)  (FT/S)
NY HARB ENTRANCE 0950            64 64  340/  8/  8 1024.4          2/ 8
20 S FIRE ISLAND 0950            64 64  350/ 10/ 10 1024.7          2/ 8
GREAT SOUTH BAY  0915            57 61  340/  8/  8   N/A
15 E BARNEGAT LI NOT AVBL
HUDSON CANYON    0950            65 65  350/  8/  8 1024.0          2/ 8
KINGS POINT      0942               65                N/A
EXECUTION ROCKS  0930            60     320/  4/  6   N/A
WESTERN LI SOUND 0849            59     350/  2/  4   N/A           0
CENTRAL LI SOUND NOT AVBL
EASTERN LI SOUND NOT AVBL
ROBBINS REEF     0936            60     300/  4/  4 1025.6
$$


>>>>>>>>>>>>>>>>>>>>>>>>>>>> KEY <<<<<<<<<<<<<<<<<<<<<<<<<<<
>                                                          <
>     SKY/WX - Sky Condition/Present Weather               <
>     TMP    - Temperature in Fahrenheit                   <
>     DP     - Dew Point in Fahrenheit                     <
>     RH     - Relative Humidity in Percent                <
>     WIND   - Direction (from) and Speed in MPH           <
>     PRES   - Mean Sea Level Pressure (inches of Hg)      <
>     WCI    - Wind Chill Index                            <
>     VSB    - VISIBILITY IN MILES                         <
>     HX     - HEAT INDEX                                  <
>     TC     - TEMPERATURE IN CELSIUS                      <
>     VRB    - VARIABLE WIND DIRECTION                     <
>                                                          <
>>>>>>>>>>>>>>>>>>>>>>>>>>>> KEY <<<<<<<<<<<<<<<<<<<<<<<<<<<



USA.gov is the U.S. government's official web portal to all federal, state and local government web resources and services.